Year,Month,Day,Hour,Minute,Value (Times are PST for temperature in C)
2014,09,15,00,00,17.70
2014,09,15,00,01,17.70
2014,09,15,00,02,17.80
2014,09,15,00,03,17.80
2014,09,15,00,04,17.80
2014,09,15,00,05,17.80
2014,09,15,00,06,17.80
2014,09,15,00,07,17.80
2014,09,15,00,08,17.70
2014,09,15,00,09,17.60
2014,09,15,00,10,17.60
2014,09,15,00,11,17.50
2014,09,15,00,12,17.40
2014,09,15,00,13,17.30
2014,09,15,00,14,17.20
2014,09,15,00,15,17.20
2014,09,15,00,16,17.20
2014,09,15,00,17,17.20
2014,09,15,00,18,17.30
2014,09,15,00,19,17.30
2014,09,15,00,20,17.40
2014,09,15,00,21,17.40
2014,09,15,00,22,17.50
2014,09,15,00,23,17.50
2014,09,15,00,24,17.60
2014,09,15,00,25,17.70
2014,09,15,00,26,17.80
2014,09,15,00,27,17.80
2014,09,15,00,28,17.90
2014,09,15,00,29,18.00
2014,09,15,00,30,18.10
2014,09,15,00,31,18.10
2014,09,15,00,32,18.20
2014,09,15,00,33,18.20
2014,09,15,00,34,18.20
2014,09,15,00,35,18.20
2014,09,15,00,36,18.10
2014,09,15,00,37,18.10
2014,09,15,00,38,18.10
2014,09,15,00,39,18.10
2014,09,15,00,40,18.10
2014,09,15,00,41,18.10
2014,09,15,00,42,18.10
2014,09,15,00,43,18.10
2014,09,15,00,44,18.10
2014,09,15,00,45,18.20
2014,09,15,00,46,18.20
2014,09,15,00,47,18.20
2014,09,15,00,48,18.20
2014,09,15,00,49,18.10
2014,09,15,00,50,18.10
2014,09,15,00,51,18.10
2014,09,15,00,52,18.00
2014,09,15,00,53,17.90
2014,09,15,00,54,17.80
2014,09,15,00,55,17.80
2014,09,15,00,56,17.70
2014,09,15,00,57,17.60
2014,09,15,00,58,17.60
2014,09,15,00,59,17.60
2014,09,15,01,00,17.50
2014,09,15,01,01,17.40
2014,09,15,01,02,17.40
2014,09,15,01,03,17.40
2014,09,15,01,04,17.40
2014,09,15,01,05,17.50
2014,09,15,01,06,17.50
2014,09,15,01,07,17.50
2014,09,15,01,08,17.40
2014,09,15,01,09,17.40
2014,09,15,01,10,17.30
2014,09,15,01,11,17.20
2014,09,15,01,12,17.20
2014,09,15,01,13,17.10
2014,09,15,01,14,17.10
2014,09,15,01,15,17.10
2014,09,15,01,16,17.10
2014,09,15,01,17,17.10
2014,09,15,01,18,17.10
2014,09,15,01,19,17.10
2014,09,15,01,20,17.00
2014,09,15,01,21,17.00
2014,09,15,01,22,16.90
2014,09,15,01,23,16.80
2014,09,15,01,24,16.80
2014,09,15,01,25,16.80
2014,09,15,01,26,16.80
2014,09,15,01,27,16.80
2014,09,15,01,28,16.90
2014,09,15,01,29,16.90
2014,09,15,01,30,16.80
2014,09,15,01,31,16.80
2014,09,15,01,32,16.80
2014,09,15,01,33,16.80
2014,09,15,01,34,16.80
2014,09,15,01,35,16.80
2014,09,15,01,36,16.80
2014,09,15,01,37,16.70
2014,09,15,01,38,16.70
2014,09,15,01,39,16.70
2014,09,15,01,40,16.70
2014,09,15,01,41,16.70
2014,09,15,01,42,16.70
2014,09,15,01,43,16.60
2014,09,15,01,44,16.60
2014,09,15,01,45,16.60
2014,09,15,01,46,16.60
2014,09,15,01,47,16.60
2014,09,15,01,48,16.60
2014,09,15,01,49,16.50
2014,09,15,01,50,16.50
2014,09,15,01,51,16.40
2014,09,15,01,52,16.30
2014,09,15,01,53,16.30
2014,09,15,01,54,16.30
2014,09,15,01,55,16.30
2014,09,15,01,56,16.30
2014,09,15,01,57,16.40
2014,09,15,01,58,16.40
2014,09,15,01,59,16.40
2014,09,15,02,00,16.40
2014,09,15,02,01,16.40
2014,09,15,02,02,16.30
2014,09,15,02,03,16.40
2014,09,15,02,04,16.60
2014,09,15,02,05,16.90
2014,09,15,02,06,17.10
2014,09,15,02,07,17.30
2014,09,15,02,08,17.40
2014,09,15,02,09,17.50
2014,09,15,02,10,17.60
2014,09,15,02,11,17.60
2014,09,15,02,12,17.70
2014,09,15,02,13,17.70
2014,09,15,02,14,17.70
2014,09,15,02,15,17.70
2014,09,15,02,16,17.70
2014,09,15,02,17,17.70
2014,09,15,02,18,17.70
2014,09,15,02,19,17.70
2014,09,15,02,20,17.70
2014,09,15,02,21,17.70
2014,09,15,02,22,17.70
2014,09,15,02,23,17.60
2014,09,15,02,24,17.60
2014,09,15,02,25,17.50
2014,09,15,02,26,17.40
2014,09,15,02,27,17.40
2014,09,15,02,28,17.30
2014,09,15,02,29,17.20
2014,09,15,02,30,17.10
2014,09,15,02,31,17.00
2014,09,15,02,32,16.90
2014,09,15,02,33,16.90
2014,09,15,02,34,16.90
2014,09,15,02,35,16.90
2014,09,15,02,36,16.90
2014,09,15,02,37,17.00
2014,09,15,02,38,17.10
2014,09,15,02,39,17.10
2014,09,15,02,40,17.20
2014,09,15,02,41,17.20
2014,09,15,02,42,17.30
2014,09,15,02,43,17.30
2014,09,15,02,44,17.40
2014,09,15,02,45,17.40
2014,09,15,02,46,17.40
2014,09,15,02,47,17.40
2014,09,15,02,48,17.40
2014,09,15,02,49,17.40
2014,09,15,02,50,17.30
2014,09,15,02,51,17.40
2014,09,15,02,52,17.40
2014,09,15,02,53,17.40
2014,09,15,02,54,17.50
2014,09,15,02,55,17.50
2014,09,15,02,56,17.60
2014,09,15,02,57,17.60
2014,09,15,02,58,17.70
2014,09,15,02,59,17.70
2014,09,15,03,00,17.60
2014,09,15,03,01,17.60
2014,09,15,03,02,17.50
2014,09,15,03,03,17.50
2014,09,15,03,04,17.40
2014,09,15,03,05,17.30
2014,09,15,03,06,17.30
2014,09,15,03,07,17.30
2014,09,15,03,08,17.30
2014,09,15,03,09,17.30
2014,09,15,03,10,17.30
2014,09,15,03,11,17.20
2014,09,15,03,12,17.20
2014,09,15,03,13,17.20
2014,09,15,03,14,17.20
2014,09,15,03,15,17.20
2014,09,15,03,16,17.10
2014,09,15,03,17,17.10
2014,09,15,03,18,17.00
2014,09,15,03,19,16.90
2014,09,15,03,20,16.80
2014,09,15,03,21,16.70
2014,09,15,03,22,16.60
2014,09,15,03,23,16.50
2014,09,15,03,24,16.40
2014,09,15,03,25,16.20
2014,09,15,03,26,16.10
2014,09,15,03,27,16.00
2014,09,15,03,28,15.90
2014,09,15,03,29,15.90
2014,09,15,03,30,15.80
2014,09,15,03,31,15.70
2014,09,15,03,32,15.70
2014,09,15,03,33,15.60
2014,09,15,03,34,15.50
2014,09,15,03,35,15.50
2014,09,15,03,36,15.40
2014,09,15,03,37,15.40
2014,09,15,03,38,15.30
2014,09,15,03,39,15.30
2014,09,15,03,40,15.30
2014,09,15,03,41,15.20
2014,09,15,03,42,15.20
2014,09,15,03,43,15.20
2014,09,15,03,44,15.10
2014,09,15,03,45,15.10
2014,09,15,03,46,15.20
2014,09,15,03,47,15.20
2014,09,15,03,48,15.20
2014,09,15,03,49,15.20
2014,09,15,03,50,15.30
2014,09,15,03,51,15.30
2014,09,15,03,52,15.30
2014,09,15,03,53,15.40
2014,09,15,03,54,15.40
2014,09,15,03,55,15.50
2014,09,15,03,56,15.60
2014,09,15,03,57,15.60
2014,09,15,03,58,15.60
2014,09,15,03,59,15.70
2014,09,15,04,00,15.70
2014,09,15,04,01,15.70
2014,09,15,04,02,15.70
2014,09,15,04,03,15.70
2014,09,15,04,04,15.70
2014,09,15,04,05,15.70
2014,09,15,04,06,15.80
2014,09,15,04,07,15.90
2014,09,15,04,08,16.00
2014,09,15,04,09,16.10
2014,09,15,04,10,16.20
2014,09,15,04,11,16.30
2014,09,15,04,12,16.30
2014,09,15,04,13,16.30
2014,09,15,04,14,16.30
2014,09,15,04,15,16.30
2014,09,15,04,16,16.30
2014,09,15,04,17,16.30
2014,09,15,04,18,16.30
2014,09,15,04,19,16.20
2014,09,15,04,20,16.20
2014,09,15,04,21,16.20
2014,09,15,04,22,16.20
2014,09,15,04,23,16.30
2014,09,15,04,24,16.30
2014,09,15,04,25,16.40
2014,09,15,04,26,16.40
2014,09,15,04,27,16.50
2014,09,15,04,28,16.60
2014,09,15,04,29,16.60
2014,09,15,04,30,16.60
2014,09,15,04,31,16.70
2014,09,15,04,32,16.70
2014,09,15,04,33,16.70
2014,09,15,04,34,16.80
2014,09,15,04,35,16.80
2014,09,15,04,36,16.80
2014,09,15,04,37,16.90
2014,09,15,04,38,16.90
2014,09,15,04,39,16.90
2014,09,15,04,40,16.90
2014,09,15,04,41,16.90
2014,09,15,04,42,16.90
2014,09,15,04,43,16.90
2014,09,15,04,44,16.90
2014,09,15,04,45,16.80
2014,09,15,04,46,16.80
2014,09,15,04,47,16.80
2014,09,15,04,48,16.70
2014,09,15,04,49,16.70
2014,09,15,04,50,16.70
2014,09,15,04,51,16.60
2014,09,15,04,52,16.50
2014,09,15,04,53,16.40
2014,09,15,04,54,16.30
2014,09,15,04,55,16.30
2014,09,15,04,56,16.20
2014,09,15,04,57,16.00
2014,09,15,04,58,15.90
2014,09,15,04,59,15.80
2014,09,15,05,00,15.70
2014,09,15,05,01,15.60
2014,09,15,05,02,15.60
2014,09,15,05,03,15.50
2014,09,15,05,04,15.50
2014,09,15,05,05,15.40
2014,09,15,05,06,15.40
2014,09,15,05,07,15.30
2014,09,15,05,08,15.30
2014,09,15,05,09,15.30
2014,09,15,05,10,15.30
2014,09,15,05,11,15.30
2014,09,15,05,12,15.40
2014,09,15,05,13,15.40
2014,09,15,05,14,15.40
2014,09,15,05,15,15.30
2014,09,15,05,16,15.30
2014,09,15,05,17,15.20
2014,09,15,05,18,15.20
2014,09,15,05,19,15.20
2014,09,15,05,20,15.20
2014,09,15,05,21,15.30
2014,09,15,05,22,15.30
2014,09,15,05,23,15.30
2014,09,15,05,24,15.30
2014,09,15,05,25,15.40
2014,09,15,05,26,15.40
2014,09,15,05,27,15.50
2014,09,15,05,28,15.50
2014,09,15,05,29,15.60
2014,09,15,05,30,15.60
2014,09,15,05,31,15.60
2014,09,15,05,32,15.60
2014,09,15,05,33,15.60
2014,09,15,05,34,15.70
2014,09,15,05,35,15.70
2014,09,15,05,36,15.70
2014,09,15,05,37,15.70
2014,09,15,05,38,15.70
2014,09,15,05,39,15.70
2014,09,15,05,40,15.60
2014,09,15,05,41,15.60
2014,09,15,05,42,15.60
2014,09,15,05,43,15.60
2014,09,15,05,44,15.60
2014,09,15,05,45,15.60
2014,09,15,05,46,15.60
2014,09,15,05,47,15.60
2014,09,15,05,48,15.70
2014,09,15,05,49,15.70
2014,09,15,05,50,15.70
2014,09,15,05,51,15.70
2014,09,15,05,52,15.70
2014,09,15,05,53,15.70
2014,09,15,05,54,15.70
2014,09,15,05,55,15.70
2014,09,15,05,56,15.80
2014,09,15,05,57,15.80
2014,09,15,05,58,15.80
2014,09,15,05,59,15.90
2014,09,15,06,00,15.90
2014,09,15,06,01,15.90
2014,09,15,06,02,15.80
2014,09,15,06,03,15.80
2014,09,15,06,04,15.80
2014,09,15,06,05,15.90
2014,09,15,06,06,16.00
2014,09,15,06,07,16.00
2014,09,15,06,08,16.10
2014,09,15,06,09,16.20
2014,09,15,06,10,16.30
2014,09,15,06,11,16.40
2014,09,15,06,12,16.50
2014,09,15,06,13,16.60
2014,09,15,06,14,16.70
2014,09,15,06,15,16.70
2014,09,15,06,16,16.80
2014,09,15,06,17,16.90
2014,09,15,06,18,16.90
2014,09,15,06,19,17.00
2014,09,15,06,20,17.00
2014,09,15,06,21,17.10
2014,09,15,06,22,17.10
2014,09,15,06,23,17.10
2014,09,15,06,24,17.20
2014,09,15,06,25,17.20
2014,09,15,06,26,17.30
2014,09,15,06,27,17.30
2014,09,15,06,28,17.40
2014,09,15,06,29,17.40
2014,09,15,06,30,17.40
2014,09,15,06,31,17.50
2014,09,15,06,32,17.50
2014,09,15,06,33,17.50
2014,09,15,06,34,17.50
2014,09,15,06,35,17.40
2014,09,15,06,36,17.40
2014,09,15,06,37,17.40
2014,09,15,06,38,17.30
2014,09,15,06,39,17.30
2014,09,15,06,40,17.20
2014,09,15,06,41,17.10
2014,09,15,06,42,17.10
2014,09,15,06,43,17.00
2014,09,15,06,44,17.00
2014,09,15,06,45,16.90
2014,09,15,06,46,16.90
2014,09,15,06,47,16.80
2014,09,15,06,48,16.70
2014,09,15,06,49,16.60
2014,09,15,06,50,16.30
2014,09,15,06,51,16.10
2014,09,15,06,52,15.90
2014,09,15,06,53,15.70
2014,09,15,06,54,15.60
2014,09,15,06,55,15.50
2014,09,15,06,56,15.40
2014,09,15,06,57,15.30
2014,09,15,06,58,15.30
2014,09,15,06,59,15.30
2014,09,15,07,00,15.30
2014,09,15,07,01,15.30
2014,09,15,07,02,15.30
2014,09,15,07,03,15.20
2014,09,15,07,04,15.20
2014,09,15,07,05,15.20
2014,09,15,07,06,15.20
2014,09,15,07,07,15.20
2014,09,15,07,08,15.20
2014,09,15,07,09,15.30
2014,09,15,07,10,15.30
2014,09,15,07,11,15.40
2014,09,15,07,12,15.50
2014,09,15,07,13,15.60
2014,09,15,07,14,15.70
2014,09,15,07,15,15.80
2014,09,15,07,16,15.90
2014,09,15,07,17,16.00
2014,09,15,07,18,16.10
2014,09,15,07,19,16.20
2014,09,15,07,20,16.30
2014,09,15,07,21,16.40
2014,09,15,07,22,16.50
2014,09,15,07,23,16.50
2014,09,15,07,24,16.70
2014,09,15,07,25,16.70
2014,09,15,07,26,16.90
2014,09,15,07,27,17.00
2014,09,15,07,28,17.10
2014,09,15,07,29,17.20
2014,09,15,07,30,17.30
2014,09,15,07,31,17.40
2014,09,15,07,32,17.50
2014,09,15,07,33,17.60
2014,09,15,07,34,17.60
2014,09,15,07,35,17.60
2014,09,15,07,36,17.70
2014,09,15,07,37,17.60
2014,09,15,07,38,17.60
2014,09,15,07,39,17.60
2014,09,15,07,40,17.60
2014,09,15,07,41,17.60
2014,09,15,07,42,17.60
2014,09,15,07,43,17.50
2014,09,15,07,44,17.50
2014,09,15,07,45,17.50
2014,09,15,07,46,17.50
2014,09,15,07,47,17.50
2014,09,15,07,48,17.60
2014,09,15,07,49,17.60
2014,09,15,07,50,17.70
2014,09,15,07,51,17.70
2014,09,15,07,52,17.70
2014,09,15,07,53,17.80
2014,09,15,07,54,17.80
2014,09,15,07,55,17.80
2014,09,15,07,56,17.80
2014,09,15,07,57,17.80
2014,09,15,07,58,17.90
2014,09,15,07,59,17.90
2014,09,15,08,00,17.90
2014,09,15,08,01,18.00
2014,09,15,08,02,18.00
2014,09,15,08,03,18.10
2014,09,15,08,04,18.30
2014,09,15,08,05,18.40
2014,09,15,08,06,18.50
2014,09,15,08,07,18.60
2014,09,15,08,08,18.70
2014,09,15,08,09,18.70
2014,09,15,08,10,18.80
2014,09,15,08,11,18.90
2014,09,15,08,12,18.90
2014,09,15,08,13,18.90
2014,09,15,08,14,18.90
2014,09,15,08,15,18.90
2014,09,15,08,16,18.90
2014,09,15,08,17,18.90
2014,09,15,08,18,18.80
2014,09,15,08,19,18.80
2014,09,15,08,20,18.70
2014,09,15,08,21,18.70
2014,09,15,08,22,18.60
2014,09,15,08,23,18.50
2014,09,15,08,24,18.50
2014,09,15,08,25,18.40
2014,09,15,08,26,18.40
2014,09,15,08,27,18.40
2014,09,15,08,28,18.40
2014,09,15,08,29,18.30
2014,09,15,08,30,18.30
2014,09,15,08,31,18.30
2014,09,15,08,32,18.30
2014,09,15,08,33,18.30
2014,09,15,08,34,18.40
2014,09,15,08,35,18.30
2014,09,15,08,36,18.40
2014,09,15,08,37,18.40
2014,09,15,08,38,18.40
2014,09,15,08,39,18.40
2014,09,15,08,40,18.40
2014,09,15,08,41,18.40
2014,09,15,08,42,18.40
2014,09,15,08,43,18.40
2014,09,15,08,44,18.40
2014,09,15,08,45,18.50
2014,09,15,08,46,18.50
2014,09,15,08,47,18.50
2014,09,15,08,48,18.60
2014,09,15,08,49,18.60
2014,09,15,08,50,18.60
2014,09,15,08,51,18.70
2014,09,15,08,52,18.70
2014,09,15,08,53,18.80
2014,09,15,08,54,18.90
2014,09,15,08,55,18.90
2014,09,15,08,56,18.90
2014,09,15,08,57,19.00
2014,09,15,08,58,19.00
2014,09,15,08,59,19.00
2014,09,15,09,00,19.00
2014,09,15,09,01,19.00
2014,09,15,09,02,19.10
2014,09,15,09,03,19.10
2014,09,15,09,04,19.10
2014,09,15,09,05,19.10
2014,09,15,09,06,19.10
2014,09,15,09,07,19.20
2014,09,15,09,08,19.20
2014,09,15,09,09,19.20
2014,09,15,09,10,19.10
2014,09,15,09,11,19.10
2014,09,15,09,12,19.00
2014,09,15,09,13,19.00
2014,09,15,09,14,18.90
2014,09,15,09,15,18.90
2014,09,15,09,16,18.90
2014,09,15,09,17,18.90
2014,09,15,09,18,18.90
2014,09,15,09,19,18.80
2014,09,15,09,20,18.80
2014,09,15,09,21,18.80
2014,09,15,09,22,18.90
2014,09,15,09,23,18.90
2014,09,15,09,24,18.90
2014,09,15,09,25,18.90
2014,09,15,09,26,18.90
2014,09,15,09,27,18.90
2014,09,15,09,28,18.90
2014,09,15,09,29,18.90
2014,09,15,09,30,18.90
2014,09,15,09,31,19.00
2014,09,15,09,32,19.00
2014,09,15,09,33,19.10
2014,09,15,09,34,19.10
2014,09,15,09,35,19.10
2014,09,15,09,36,19.10
2014,09,15,09,37,19.10
2014,09,15,09,38,19.10
2014,09,15,09,39,19.20
2014,09,15,09,40,19.20
2014,09,15,09,41,19.30
2014,09,15,09,42,19.30
2014,09,15,09,43,19.30
2014,09,15,09,44,19.30
2014,09,15,09,45,19.20
2014,09,15,09,46,19.20
2014,09,15,09,47,19.10
2014,09,15,09,48,19.10
2014,09,15,09,49,19.10
2014,09,15,09,50,19.10
2014,09,15,09,51,19.20
2014,09,15,09,52,19.20
2014,09,15,09,53,19.20
2014,09,15,09,54,19.20
2014,09,15,09,55,19.20
2014,09,15,09,56,19.10
2014,09,15,09,57,19.10
2014,09,15,09,58,19.20
2014,09,15,09,59,19.20
2014,09,15,10,00,19.20
2014,09,15,10,01,19.20
2014,09,15,10,02,19.20
2014,09,15,10,03,19.30
2014,09,15,10,04,19.30
2014,09,15,10,05,19.30
2014,09,15,10,06,19.40
2014,09,15,10,07,19.40
2014,09,15,10,08,19.40
2014,09,15,10,09,19.40
2014,09,15,10,10,19.40
2014,09,15,10,11,19.50
2014,09,15,10,12,19.50
2014,09,15,10,13,19.60
2014,09,15,10,14,19.60
2014,09,15,10,15,19.60
2014,09,15,10,16,19.60
2014,09,15,10,17,19.60
2014,09,15,10,18,19.60
2014,09,15,10,19,19.60
2014,09,15,10,20,19.60
2014,09,15,10,21,19.70
2014,09,15,10,22,19.70
2014,09,15,10,23,19.70
2014,09,15,10,24,19.80
2014,09,15,10,25,19.80
2014,09,15,10,26,19.80
2014,09,15,10,27,19.80
2014,09,15,10,28,19.80
2014,09,15,10,29,19.80
2014,09,15,10,30,19.80
2014,09,15,10,31,19.80
2014,09,15,10,32,19.80
2014,09,15,10,33,19.70
2014,09,15,10,34,19.70
2014,09,15,10,35,19.70
2014,09,15,10,36,19.60
2014,09,15,10,37,19.60
2014,09,15,10,38,19.50
2014,09,15,10,39,19.50
2014,09,15,10,40,19.40
2014,09,15,10,41,19.40
2014,09,15,10,42,19.30
2014,09,15,10,43,19.30
2014,09,15,10,44,19.20
2014,09,15,10,45,19.20
2014,09,15,10,46,19.20
2014,09,15,10,47,19.20
2014,09,15,10,48,19.20
2014,09,15,10,49,19.20
2014,09,15,10,50,19.20
2014,09,15,10,51,19.30
2014,09,15,10,52,19.30
2014,09,15,10,53,19.20
2014,09,15,10,54,19.20
2014,09,15,10,55,19.20
2014,09,15,10,56,19.10
2014,09,15,10,57,19.10
2014,09,15,10,58,19.10
2014,09,15,10,59,19.10
2014,09,15,11,00,19.00
2014,09,15,11,01,19.00
2014,09,15,11,02,18.90
2014,09,15,11,03,18.80
2014,09,15,11,04,18.80
2014,09,15,11,05,18.70
2014,09,15,11,06,18.70
2014,09,15,11,07,18.70
2014,09,15,11,08,18.70
2014,09,15,11,09,18.60
2014,09,15,11,10,18.60
2014,09,15,11,11,18.60
2014,09,15,11,12,18.70
2014,09,15,11,13,18.70
2014,09,15,11,14,18.70
2014,09,15,11,15,18.80
2014,09,15,11,16,18.80
2014,09,15,11,17,18.90
2014,09,15,11,18,18.90
2014,09,15,11,19,18.90
2014,09,15,11,20,19.00
2014,09,15,11,21,19.10
2014,09,15,11,22,19.10
2014,09,15,11,23,19.10
2014,09,15,11,24,19.10
2014,09,15,11,25,19.20
2014,09,15,11,26,19.20
2014,09,15,11,27,19.30
2014,09,15,11,28,19.30
2014,09,15,11,29,19.30
2014,09,15,11,30,19.30
2014,09,15,11,31,19.30
2014,09,15,11,32,19.30
2014,09,15,11,33,19.30
2014,09,15,11,34,19.30
2014,09,15,11,35,19.30
2014,09,15,11,36,19.30
2014,09,15,11,37,19.40
2014,09,15,11,38,19.30
2014,09,15,11,39,19.30
2014,09,15,11,40,19.30
2014,09,15,11,41,19.20
2014,09,15,11,42,19.20
2014,09,15,11,43,19.20
2014,09,15,11,44,19.20
2014,09,15,11,45,19.20
2014,09,15,11,46,19.20
2014,09,15,11,47,19.20
2014,09,15,11,48,19.20
2014,09,15,11,49,19.20
2014,09,15,11,50,19.20
2014,09,15,11,51,19.20
2014,09,15,11,52,19.20
2014,09,15,11,53,19.20
2014,09,15,11,54,19.30
2014,09,15,11,55,19.30
2014,09,15,11,56,19.30
2014,09,15,11,57,19.40
2014,09,15,11,58,19.40
2014,09,15,11,59,19.40
2014,09,15,12,00,19.50
2014,09,15,12,01,19.60
2014,09,15,12,02,19.60
2014,09,15,12,03,19.70
2014,09,15,12,04,19.70
2014,09,15,12,05,19.60
2014,09,15,12,06,19.60
2014,09,15,12,07,19.60
2014,09,15,12,08,19.60
2014,09,15,12,09,19.60
2014,09,15,12,10,19.60
2014,09,15,12,11,19.70
2014,09,15,12,12,19.70
2014,09,15,12,13,19.70
2014,09,15,12,14,19.70
2014,09,15,12,15,19.80
2014,09,15,12,16,19.80
2014,09,15,12,17,19.80
2014,09,15,12,18,19.90
2014,09,15,12,19,19.90
2014,09,15,12,20,19.90
2014,09,15,12,21,20.00
2014,09,15,12,22,20.00
2014,09,15,12,23,20.10
2014,09,15,12,24,20.20
2014,09,15,12,25,20.20
2014,09,15,12,26,20.30
2014,09,15,12,27,20.30
2014,09,15,12,28,20.40
2014,09,15,12,29,20.40
2014,09,15,12,30,20.50
2014,09,15,12,31,20.50
2014,09,15,12,32,20.50
2014,09,15,12,33,20.40
2014,09,15,12,34,20.40
2014,09,15,12,35,20.40
2014,09,15,12,36,20.40
2014,09,15,12,37,20.30
2014,09,15,12,38,20.30
2014,09,15,12,39,20.20
2014,09,15,12,40,20.20
2014,09,15,12,41,20.10
2014,09,15,12,42,20.10
2014,09,15,12,43,20.10
2014,09,15,12,44,20.20
2014,09,15,12,45,20.20
2014,09,15,12,46,20.20
2014,09,15,12,47,20.20
2014,09,15,12,48,20.20
2014,09,15,12,49,20.30
2014,09,15,12,50,20.30
2014,09,15,12,51,20.30
2014,09,15,12,52,20.40
2014,09,15,12,53,20.40
2014,09,15,12,54,20.40
2014,09,15,12,55,20.40
2014,09,15,12,56,20.30
2014,09,15,12,57,20.30
2014,09,15,12,58,20.30
2014,09,15,12,59,20.30
2014,09,15,13,00,20.30
2014,09,15,13,01,20.40
2014,09,15,13,02,20.40
2014,09,15,13,03,20.40
2014,09,15,13,04,20.50
2014,09,15,13,05,20.50
2014,09,15,13,06,20.50
2014,09,15,13,07,20.60
2014,09,15,13,08,20.60
2014,09,15,13,09,20.60
2014,09,15,13,10,20.60
2014,09,15,13,11,20.60
2014,09,15,13,12,20.60
2014,09,15,13,13,20.60
2014,09,15,13,14,20.50
2014,09,15,13,15,20.50
2014,09,15,13,16,20.40
2014,09,15,13,17,20.40
2014,09,15,13,18,20.50
2014,09,15,13,19,20.50
2014,09,15,13,20,20.60
2014,09,15,13,21,20.60
2014,09,15,13,22,20.70
2014,09,15,13,23,20.70
2014,09,15,13,24,20.70
2014,09,15,13,25,20.70
2014,09,15,13,26,20.80
2014,09,15,13,27,20.80
2014,09,15,13,28,20.80
2014,09,15,13,29,20.80
2014,09,15,13,30,20.70
2014,09,15,13,31,20.70
2014,09,15,13,32,20.80
2014,09,15,13,33,20.80
2014,09,15,13,34,20.70
2014,09,15,13,35,20.70
2014,09,15,13,36,20.70
2014,09,15,13,37,20.70
2014,09,15,13,38,20.60
2014,09,15,13,39,20.70
2014,09,15,13,40,20.70
2014,09,15,13,41,20.70
2014,09,15,13,42,20.70
2014,09,15,13,43,20.80
2014,09,15,13,44,20.80
2014,09,15,13,45,20.70
2014,09,15,13,46,20.70
2014,09,15,13,47,20.70
2014,09,15,13,48,20.60
2014,09,15,13,49,20.60
2014,09,15,13,50,20.60
2014,09,15,13,51,20.60
2014,09,15,13,52,20.70
2014,09,15,13,53,20.60
2014,09,15,13,54,20.60
2014,09,15,13,55,20.60
2014,09,15,13,56,20.60
2014,09,15,13,57,20.60
2014,09,15,13,58,20.60
2014,09,15,13,59,20.60
2014,09,15,14,00,20.60
2014,09,15,14,01,20.60
2014,09,15,14,02,20.70
2014,09,15,14,03,20.60
2014,09,15,14,04,20.60
2014,09,15,14,05,20.60
2014,09,15,14,06,20.60
2014,09,15,14,07,20.60
2014,09,15,14,08,20.70
2014,09,15,14,09,20.70
2014,09,15,14,10,20.70
2014,09,15,14,11,20.70
2014,09,15,14,12,20.70
2014,09,15,14,13,20.70
2014,09,15,14,14,20.70
2014,09,15,14,15,20.70
2014,09,15,14,16,20.80
2014,09,15,14,17,20.80
2014,09,15,14,18,20.90
2014,09,15,14,19,20.90
2014,09,15,14,20,20.90
2014,09,15,14,21,20.90
2014,09,15,14,22,20.90
2014,09,15,14,23,20.90
2014,09,15,14,24,20.90
2014,09,15,14,25,20.90
2014,09,15,14,26,21.00
2014,09,15,14,27,21.00
2014,09,15,14,28,21.00
2014,09,15,14,29,20.90
2014,09,15,14,30,20.90
2014,09,15,14,31,20.90
2014,09,15,14,32,20.90
2014,09,15,14,33,20.90
2014,09,15,14,34,20.90
2014,09,15,14,35,20.90
2014,09,15,14,36,20.90
2014,09,15,14,37,20.90
2014,09,15,14,38,20.90
2014,09,15,14,39,20.80
2014,09,15,14,40,20.80
2014,09,15,14,41,20.80
2014,09,15,14,42,20.90
2014,09,15,14,43,20.90
2014,09,15,14,44,20.90
2014,09,15,14,45,21.00
2014,09,15,14,46,21.00
2014,09,15,14,47,21.10
2014,09,15,14,48,21.10
2014,09,15,14,49,21.10
2014,09,15,14,50,21.20
2014,09,15,14,51,21.20
2014,09,15,14,52,21.20
2014,09,15,14,53,21.20
2014,09,15,14,54,21.20
2014,09,15,14,55,21.20
2014,09,15,14,56,21.20
2014,09,15,14,57,21.10
2014,09,15,14,58,21.10
2014,09,15,14,59,21.10
2014,09,15,15,00,21.10
2014,09,15,15,01,21.10
2014,09,15,15,02,21.10
2014,09,15,15,03,21.10
2014,09,15,15,04,21.10
2014,09,15,15,05,21.10
2014,09,15,15,06,21.10
2014,09,15,15,07,21.20
2014,09,15,15,08,21.20
2014,09,15,15,09,21.20
2014,09,15,15,10,21.20
2014,09,15,15,11,21.20
2014,09,15,15,12,21.20
2014,09,15,15,13,21.30
2014,09,15,15,14,21.30
2014,09,15,15,15,21.20
2014,09,15,15,16,21.20
2014,09,15,15,17,21.20
2014,09,15,15,18,21.20
2014,09,15,15,19,21.20
2014,09,15,15,20,21.20
2014,09,15,15,21,21.20
2014,09,15,15,22,21.30
2014,09,15,15,23,21.30
2014,09,15,15,24,21.30
2014,09,15,15,25,21.30
2014,09,15,15,26,21.40
2014,09,15,15,27,21.40
2014,09,15,15,28,21.40
2014,09,15,15,29,21.40
2014,09,15,15,30,21.50
2014,09,15,15,31,21.50
2014,09,15,15,32,21.50
2014,09,15,15,33,21.40
2014,09,15,15,34,21.40
2014,09,15,15,35,21.30
2014,09,15,15,36,21.30
2014,09,15,15,37,21.30
2014,09,15,15,38,21.30
2014,09,15,15,39,21.30
2014,09,15,15,40,21.30
2014,09,15,15,41,21.30
2014,09,15,15,42,21.30
2014,09,15,15,43,21.30
2014,09,15,15,44,21.30
2014,09,15,15,45,21.30
2014,09,15,15,46,21.40
2014,09,15,15,47,21.40
2014,09,15,15,48,21.40
2014,09,15,15,49,21.40
2014,09,15,15,50,21.40
2014,09,15,15,51,21.40
2014,09,15,15,52,21.30
2014,09,15,15,53,21.30
2014,09,15,15,54,21.30
2014,09,15,15,55,21.20
2014,09,15,15,56,21.20
2014,09,15,15,57,21.10
2014,09,15,15,58,21.00
2014,09,15,15,59,20.90
2014,09,15,16,00,20.90
2014,09,15,16,01,20.90
2014,09,15,16,02,20.90
2014,09,15,16,03,20.90
2014,09,15,16,04,21.00
2014,09,15,16,05,21.00
2014,09,15,16,06,21.10
2014,09,15,16,07,21.10
2014,09,15,16,08,21.20
2014,09,15,16,09,21.20
2014,09,15,16,10,21.20
2014,09,15,16,11,21.30
2014,09,15,16,12,21.30
2014,09,15,16,13,21.30
2014,09,15,16,14,21.30
2014,09,15,16,15,21.30
2014,09,15,16,16,21.30
2014,09,15,16,17,21.30
2014,09,15,16,18,21.30
2014,09,15,16,19,21.40
2014,09,15,16,20,21.40
2014,09,15,16,21,21.40
2014,09,15,16,22,21.40
2014,09,15,16,23,21.40
2014,09,15,16,24,21.40
2014,09,15,16,25,21.40
2014,09,15,16,26,21.40
2014,09,15,16,27,21.50
2014,09,15,16,28,21.50
2014,09,15,16,29,21.50
2014,09,15,16,30,21.50
2014,09,15,16,31,21.50
2014,09,15,16,32,21.50
2014,09,15,16,33,21.50
2014,09,15,16,34,21.60
2014,09,15,16,35,21.60
2014,09,15,16,36,21.60
2014,09,15,16,37,21.70
2014,09,15,16,38,21.70
2014,09,15,16,39,21.70
2014,09,15,16,40,21.70
2014,09,15,16,41,21.70
2014,09,15,16,42,21.70
2014,09,15,16,43,21.70
2014,09,15,16,44,21.70
2014,09,15,16,45,21.80
2014,09,15,16,46,21.80
2014,09,15,16,47,21.80
2014,09,15,16,48,21.80
2014,09,15,16,49,21.80
2014,09,15,16,50,21.80
2014,09,15,16,51,21.80
2014,09,15,16,52,21.80
2014,09,15,16,53,21.80
2014,09,15,16,54,21.80
2014,09,15,16,55,21.80
2014,09,15,16,56,21.80
2014,09,15,16,57,21.80
2014,09,15,16,58,21.80
2014,09,15,16,59,21.70
2014,09,15,17,00,21.80
2014,09,15,17,01,21.80
2014,09,15,17,02,21.80
2014,09,15,17,03,21.80
2014,09,15,17,04,21.80
2014,09,15,17,05,21.80
2014,09,15,17,06,21.80
2014,09,15,17,07,21.80
2014,09,15,17,08,21.80
2014,09,15,17,09,21.80
2014,09,15,17,10,21.80
2014,09,15,17,11,21.80
2014,09,15,17,12,21.80
2014,09,15,17,13,21.80
2014,09,15,17,14,21.80
2014,09,15,17,15,21.80
2014,09,15,17,16,21.80
2014,09,15,17,17,21.80
2014,09,15,17,18,21.80
2014,09,15,17,19,21.80